{"data":{"norad_id":55460,"intl_designator":"2023-015M","name":"STARLINK-5678","alt_names":[],"object_type":"PAYLOAD","status":"ACTIVE","operator":null,"country":"US","launch_date":"2023-02-02","launch_site_code":"AFETR","launch_vehicle":null,"mission":null,"orbit_class":"UNKNOWN","rcs_meters":null,"size_class":null,"mass_kg":null,"dimensions":null,"purposes":["comms"],"wikipedia_slug":null,"has_3d_model":false,"image_url":null,"decayed_at":null,"tle_current":{"epoch":"2026-09-19T01:20:41.342784Z","epoch_age_seconds":225143,"freshness":"STALE","line1":"1 55460U 23015M   26262.05603406  .00000362  00000+0  22670-4 0  9994","line2":"2 55460  43.0034 316.8021 0001263 269.4396  90.6311 15.27579780200292","mean_motion":15.2757978,"eccentricity":0.0001263,"inclination_deg":43.0034,"raan_deg":316.8021,"arg_perigee_deg":269.4396,"mean_anomaly_deg":90.6311,"bstar":2.267e-5,"rev_number":20029,"period_min":94.266762289823,"perigee_km":482.18318691174,"apogee_km":483.91632268601,"semimajor_km":6861.1867547989,"source":"CELESTRAK","updated_at":"2026-09-21T09:00:33.228447Z"}}}